User: anonymous   Login
Location: Unspecified
(0.0000°N, 0.0000°E)
Time: 06:09:33
(UTC+00:00)
Language:

USA 252 - Orbit

View from above orbital plane
View from above orbital plane
View from above satellite
View from above satellite

Ground track
Ground track

The orbit data is extracted from the following two-line orbital elements,

1 39751U 14027A   17295.05423130 0.00000000  00000-0  00000-0 0    04
2 39751   2.7506 220.0395 0004229  72.6469 287.4206  1.00270000    08
Epoch (UTC): 22 October 2017 01:18:05
Eccentricity: 0.0004229
inclination: 2.7506°
perigee height: 35769 km
apogee height: 35804 km
right ascension of ascending node: 220.0395°
argument of perigee: 72.6469°
revolutions per day: 1.00270000
mean anomaly at epoch: 287.4206°
orbit number at epoch: 0

The dashed part of the orbit path shows where the satellite is in the earth's shadow,  

DLR